FW2837 Weather Reports


time (UTC)temp
F
wind
direction
speed
knots
gust
knots
rain 1hr
in
rain 24hr
in
rain mn
in
humidity
%
barometer
mb
20260505051403 52 203 0.0 0.0 0.00 0.00 0.00 91 1008.5
20260505050303 52 180 0.0 0.0 0.00 0.00 0.00 88 1008.8
20260505041302 54 68 0.0 0.0 0.00 0.00 0.00 88 1008.1
20260505040204 54 68 0.0 0.0 0.00 0.00 0.00 88 1008.5
20260505033903 54 90 0.0 0.0 0.00 0.00 0.00 88 1008.1
20260505032802 55 68 0.0 0.0 0.00 0.00 0.00 86 1008.1
20260505031702 55 68 0.0 0.0 0.00 0.00 0.00 85 1008.5
20260505025502 56 68 0.0 0.0 0.00 0.00 0.00 83 1008.5
20260505024402 56 23 0.0 0.0 0.00 0.00 0.00 83 1008.1
20260505023302 56 158 0.0 0.0 0.00 0.00 0.00 83 1007.8
20260505022202 57 248 0.0 0.0 0.00 0.00 0.00 80 1007.8
20260505020903 57 180 0.0 0.0 0.00 0.00 0.00 78 1008.1
20260505014703 58 90 0.0 0.0 0.00 0.00 0.00 75 1008.1
20260505013703 59 23 0.0 0.0 0.00 0.00 0.00 74 1008.1
20260505012603 60 113 0.0 0.0 0.00 0.00 0.00 70 1007.8
20260505011503 61 135 0.0 0.0 0.00 0.00 0.00 70 1007.8
20260505010403 62 113 0.0 0.0 0.00 0.00 0.00 68 1007.8
20260505005304 63 45 0.0 0.0 0.00 0.00 0.00 65 1007.8
20260505004203 63 45 0.0 1.7 0.00 0.00 0.00 63 1007.5
20260505003103 64 23 0.0 0.0 0.00 0.00 0.00 61 1007.5
20260505002002 65 90 0.9 1.7 0.00 0.00 0.00 60 1007.5
20260505000903 66 45 0.0 3.5 0.00 0.00 0.00 58 1007.5
20260504235903 67 113 1.7 1.7 0.00 0.00 0.00 55 1007.5
20260504234803 68 113 0.9 3.5 0.00 0.00 0.00 54 1007.5
20260504233803 69 45 0.0 5.2 0.00 0.00 0.00 50 1007.1
20260504232703 70 248 1.7 3.5 0.00 0.00 0.00 50 1007.1
20260504231603 72 270 0.9 2.6 0.00 0.00 0.00 49 1007.5
20260504225503 74 293 1.7 3.5 0.00 0.00 0.00 45 1007.5
20260504223303 76 45 1.7 5.2 0.00 0.00 0.00 43 1007.1
20260504221103 77 338 2.6 4.3 0.00 0.00 0.00 41 1006.8
20260504214902 81 293 1.7 3.5 0.00 0.00 0.00 39 1007.1
20260504212802 82 248 1.7 4.3 0.00 0.00 0.00 37 1006.8
20260504211702 83 293 1.7 3.5 0.00 0.00 0.00 37 1007.1
20260504210604 83 203 3.5 3.5 0.00 0.00 0.00 37 1007.1
20260504205602 84 23 3.5 5.2 0.00 0.00 0.00 35 1007.1
20260504204503 85 90 2.6 3.5 0.00 0.00 0.00 35 1007.1
20260504203402 84 270 1.7 4.3 0.00 0.00 0.00 37 1007.1
20260504202304 85 0 2.6 5.2 0.00 0.00 0.00 35 1007.1
20260504201203 83 90 2.6 4.3 0.00 0.00 0.00 37 1008.1
20260504200203 83 225 0.9 4.3 0.00 0.00 0.00 40 1007.5
20260504195102 85 338 2.6 4.3 0.00 0.00 0.00 37 1008.1
20260504194003 83 338 3.5 5.2 0.00 0.00 0.00 37 1008.5
20260504192903 84 315 3.5 5.2 0.00 0.00 0.00 37 1008.5
20260504190703 83 113 1.7 3.5 0.00 0.00 0.00 37 1009.1
20260504184602 83 45 4.3 7.8 0.00 0.00 0.00 37 1009.1
20260504183503 83 23 2.6 5.2 0.00 0.00 0.00 37 1009.5
20260504182403 83 315 3.5 4.3 0.00 0.00 0.00 37 1009.5
20260504181402 83 45 2.6 6.1 0.00 0.00 0.00 37 1009.5
20260504175202 83 113 2.6 4.3 0.00 0.00 0.00 37 1009.8
20260504174103 83 203 1.7 3.5 0.00 0.00 0.00 37 1009.8
20260504171903 82 293 1.7 4.3 0.00 0.00 0.00 37 1010.2
20260504170802 81 338 1.7 5.2 0.00 0.00 0.00 35 1010.2
20260504160303 80 293 4.3 4.3 0.00 0.00 0.00 35 1011.5
20260504120303 63 113 1.7 3.5 0.00 0.00 0.00 55 1013.2
20260504100503 43 135 0.0 0.0 0.00 0.00 0.00 91 1013.5
20260504081102 41 68 0.0 0.0 0.00 0.00 0.00 88 1013.2